Terug naar catalogus

KUIPER-00152

ActiefCommunicatieLEO
NORAD 65772·PAYLOAD·🇺🇸 United States

Gelanceerd Sep 25, 2025 vanaf Cape Canaveral Space Force Station

Loading…

Volgende Passages (komende 24 uur)

TLE

VersSource: CelesTrak SupGP

Epoch: Sep 14, 2026, 22:25 UTC

1 65772C 25217L   26257.93444444  .00003037  00000+0  39768-3 0  2577
2 65772  51.8993 273.7641 0000513  48.0307  53.8573 14.79914551    13

Volg KUIPER-00152 in realtime met AllMySat

Download on the App Store